Regional Weather Roundup
Issued by NWS

Home | Current Version | Previous Version | Text Only | Print | Product List | Glossary Off
Versions: 1 2 3 4 5 6 7 8 9 10 11 12 13 14 15 16 17 18 19 20 21 22 23 24 25 26 27 28 29 30 31 32 33 34 35 36 37 38 39 40 41 42 43 44 45 46 47 48 49 50

000
ASUS43 KFSD 050210
RWRSD

WEATHER ROUNDUP FOR SOUTH DAKOTA
NATIONAL WEATHER SERVICE SIOUX FALLS SD
800 PM CST WED MAR 04 2015

NOTE: "FAIR" INDICATES FEW OR NO CLOUDS BELOW 12,000 FEET WITH NO
SIGNIFICANT WEATHER AND/OR OBSTRUCTIONS TO VISIBILITY.


SDZ001>005-009-010-012>017-050300-
NORTHWEST AND NORTH CENTRAL SOUTH DAKOTA

CITY           SKY/WX    TMP DP  RH WIND       PRES   REMARKS
BUFFALO          N/A     11  -5  48 NW7       30.12R WCI   0
FAITH            N/A      9 -10  42 N5        30.26R WCI   1
MOBRIDGE       CLEAR      3  -9  57 NE8       30.31S WCI -10
$$

SDZ012>016-024>037-041>051-057-063-072>074-050300-
SOUTHWEST AND SOUTH CENTRAL SOUTH DAKOTA

CITY           SKY/WX    TMP DP  RH WIND       PRES   REMARKS
RAPID CTY ARPT CLEAR      4  -4  69 N7        30.22R WCI  -8
PIERRE         CLEAR      4  -8  57 N7        30.35R WCI  -8
CUSTER         CLEAR      4 -10  52 W6        30.04R WCI  -7
ELLSWORTH AFB  CLEAR     11  -3  54 S2        30.21R
PHILIP         CLEAR      1  -6  72 NW6       30.31R WCI -10
PINE RIDGE     CLEAR      3  -3  76 NE6       30.24R WCI  -8
SPEARFISH      FAIR       0  -8  71 MISG      30.16S
WINNER         FAIR       8  -6  52 E3        30.34R
$$

SDZ004>011-016>023-039-040-050300-
NORTHEAST SOUTH DAKOTA

CITY           SKY/WX    TMP DP  RH WIND       PRES   REMARKS
ABERDEEN       CLEAR     -2 -13  59 NW6       30.41R WCI -14
WATERTOWN      CLEAR     -6 -14  68 NW7       30.33R WCI -20
SISSETON         N/A     -2 -11  65 NW10      30.38  WCI -19
$$

SDZ017-020-022-023-036>040-048>070-050300-
SOUTHEAST SOUTH DAKOTA

CITY           SKY/WX    TMP DP  RH WIND       PRES   REMARKS
SIOUX FALLS    CLEAR      1  -7  68 NW7       30.38R WCI -12
HURON          CLEAR     -1 -10  65 N8        30.41R WCI -15
CHAMBERLAIN    CLEAR     -1  -9  68 CALM      30.37R
MITCHELL       CLEAR      3  -6  66 N6        30.42R WCI  -8
YANKTON        CLEAR      7  -6  56 N5        30.44R WCI  -2
$$

ABBREVIATIONS USED IN REMARKS
   TC - TEMPERATURE IN CELSIUS
  WCI - WIND CHILL INDEX
   HX - HEAT INDEX
  VSB - VISIBILITY



USA.gov is the U.S. government's official web portal to all federal, state and local government web resources and services.